Time,TemperatureF,DewpointF,PressureIn,WindDirection,WindDirectionDegrees,WindSpeedMPH,WindSpeedGustMPH,Humidity,HourlyPrecipIn,Conditions,Clouds,dailyrainin,SoftwareType,DateUTC
2013-11-02 00:24:00,47.0,45.0,29.77,West,267,0.0,1.0,94,0.01,,,0.03,,2013-11-02 04:24:00,
2013-11-02 00:54:00,46.0,45.0,29.76,West,267,0.0,2.0,95,0.00,,,0.03,,2013-11-02 04:54:00,
2013-11-02 01:22:00,46.0,45.0,29.76,West,267,0.0,1.0,95,0.00,,,0.02,,2013-11-02 05:22:00,
2013-11-02 01:52:00,46.0,45.0,29.77,West,267,0.0,1.0,95,0.00,,,0.02,,2013-11-02 05:52:00,
2013-11-02 02:22:00,46.0,45.0,29.76,West,267,0.0,1.0,95,0.00,,,0.02,,2013-11-02 06:22:00,
2013-11-02 02:52:00,46.0,45.0,29.77,West,267,0.0,1.0,95,0.00,,,0.02,,2013-11-02 06:52:00,
2013-11-02 03:22:00,45.0,44.0,29.77,West,267,0.0,1.0,95,0.00,,,0.02,,2013-11-02 07:22:00,
2013-11-02 03:42:00,44.0,43.0,29.77,West,267,0.0,0.0,95,0.00,,,0.02,,2013-11-02 07:42:00,
2013-11-02 03:52:00,44.0,43.0,29.77,West,267,0.0,1.0,95,0.00,,,0.02,,2013-11-02 07:52:00,
2013-11-02 04:22:00,43.0,42.0,29.78,West,267,0.0,1.0,95,0.00,,,0.02,,2013-11-02 08:22:00,
2013-11-02 04:52:00,42.0,41.0,29.78,West,267,0.0,1.0,96,0.00,,,0.02,,2013-11-02 08:52:00,
2013-11-02 05:21:00,42.0,41.0,29.78,West,267,0.0,1.0,96,0.00,,,0.02,,2013-11-02 09:21:00,
2013-11-02 05:53:00,42.0,41.0,29.78,West,267,0.0,1.0,96,0.00,,,0.02,,2013-11-02 09:53:00,
2013-11-02 06:23:00,42.0,41.0,29.80,West,267,0.0,0.0,96,0.00,,,0.02,,2013-11-02 10:23:00,
2013-11-02 06:53:00,42.0,41.0,29.80,West,267,0.0,1.0,96,0.00,,,0.02,,2013-11-02 10:53:00,
2013-11-02 07:22:00,42.0,41.0,29.81,West,267,0.0,0.0,96,0.00,,,0.02,,2013-11-02 11:22:00,
2013-11-02 07:52:00,41.0,40.0,29.81,West,267,0.0,1.0,96,0.00,,,0.02,,2013-11-02 11:52:00,
2013-11-02 08:21:00,40.0,39.0,29.82,West,267,0.0,1.0,96,0.00,,,0.02,,2013-11-02 12:21:00,
2013-11-02 08:52:00,40.0,39.0,29.83,West,267,0.0,0.0,96,0.00,,,0.02,,2013-11-02 12:52:00,
2013-11-02 09:22:00,39.0,38.0,29.85,West,267,0.0,0.0,96,0.01,,,0.03,,2013-11-02 13:22:00,
2013-11-02 09:52:00,40.0,39.0,29.86,West,267,0.0,1.0,97,0.01,,,0.03,,2013-11-02 13:52:00,
2013-11-02 10:21:00,42.0,41.0,29.87,West,267,0.0,2.0,97,0.00,,,0.03,,2013-11-02 14:21:00,
2013-11-02 10:52:00,43.0,42.0,29.88,NW,320,0.0,5.0,97,0.00,,,0.03,,2013-11-02 14:52:00,
2013-11-02 11:22:00,45.0,44.0,29.89,NNW,340,0.0,2.0,96,0.00,,,0.03,,2013-11-02 15:22:00,
2013-11-02 11:53:00,46.0,44.0,29.90,West,280,1.0,4.0,91,0.00,,,0.03,,2013-11-02 15:53:00,
2013-11-02 12:23:00,49.0,45.0,29.91,WNW,303,0.0,7.0,86,0.00,,,0.03,,2013-11-02 16:23:00,
2013-11-02 12:54:00,50.0,44.0,29.92,WNW,299,2.0,9.0,80,0.00,,,0.03,,2013-11-02 16:54:00,
2013-11-02 13:22:00,50.0,44.0,29.93,West,273,2.0,10.0,80,0.00,,,0.03,,2013-11-02 17:22:00,
2013-11-02 13:53:00,50.0,42.0,29.94,WNW,286,2.0,10.0,74,0.00,,,0.03,,2013-11-02 17:53:00,
2013-11-02 14:21:00,50.0,41.0,29.94,NW,304,1.0,12.0,71,0.00,,,0.03,,2013-11-02 18:21:00,
2013-11-02 14:52:00,50.0,41.0,29.94,WNW,302,1.0,7.0,72,0.00,,,0.03,,2013-11-02 18:52:00,
2013-11-02 15:21:00,49.0,39.0,29.95,West,275,1.0,7.0,69,0.00,,,0.03,,2013-11-02 19:21:00,
2013-11-02 15:52:00,49.0,41.0,29.96,WSW,250,0.0,5.0,74,0.00,,,0.03,,2013-11-02 19:52:00,
2013-11-02 16:22:00,49.0,43.0,29.97,WNW,283,2.0,5.0,81,0.00,,,0.03,,2013-11-02 20:22:00,
2013-11-02 16:53:00,49.0,43.0,29.98,West,274,2.0,6.0,80,0.00,,,0.03,,2013-11-02 20:53:00,
2013-11-02 17:22:00,48.0,42.0,29.99,West,277,1.0,6.0,81,0.00,,,0.03,,2013-11-02 21:22:00,
2013-11-02 17:54:00,47.0,41.0,30.01,WNW,285,0.0,3.0,81,0.00,,,0.03,,2013-11-02 21:54:00,
2013-11-02 18:24:00,47.0,41.0,30.01,West,279,0.0,2.0,81,0.00,,,0.03,,2013-11-02 22:24:00,
2013-11-02 18:54:00,46.0,41.0,30.02,West,279,0.0,1.0,83,0.00,,,0.03,,2013-11-02 22:54:00,
2013-11-02 19:22:00,46.0,41.0,30.04,West,279,0.0,2.0,84,0.00,,,0.03,,2013-11-02 23:22:00,
2013-11-02 19:42:00,45.0,41.0,30.04,West,279,0.0,2.0,85,0.00,,,0.03,,2013-11-02 23:42:00,
2013-11-02 19:52:00,45.0,41.0,30.05,West,279,0.0,1.0,86,0.00,,,0.03,,2013-11-02 23:52:00,
2013-11-02 20:21:00,45.0,42.0,30.07,West,280,0.0,0.0,90,0.01,,,0.04,,2013-11-03 00:21:00,
2013-11-02 20:52:00,44.0,42.0,30.08,West,279,0.0,0.0,92,0.01,,,0.04,,2013-11-03 00:52:00,
2013-11-02 21:21:00,44.0,42.0,30.09,West,279,0.0,0.0,92,0.00,,,0.04,,2013-11-03 01:21:00,
2013-11-02 21:52:00,43.0,41.0,30.09,West,279,0.0,0.0,93,0.00,,,0.04,,2013-11-03 01:52:00,
2013-11-02 22:52:00,43.0,41.0,30.11,West,279,0.0,0.0,93,0.00,,,0.03,,2013-11-03 02:52:00,
2013-11-02 23:11:00,43.0,41.0,30.11,West,279,0.0,0.0,93,0.00,,,0.03,,2013-11-03 03:11:00,
2013-11-02 23:22:00,43.0,41.0,30.12,West,279,0.0,0.0,93,0.00,,,0.03,,2013-11-03 03:22:00,
2013-11-02 23:54:00,42.0,40.0,30.13,West,279,0.0,0.0,93,0.00,,,0.03,,2013-11-03 03:54:00,